Powrót do katalogu

STARLINK-6054

AktywnyŁącznośćVLEO
NORAD 56465·PAYLOAD·🇺🇸 United States

Wystrzelony May 10, 2023 z Vandenberg Space Force Base

Loading…

Następne Przeloty (najbliższe 24 godziny)

TLE

ŚwieżeSource: CelesTrak SupGP

Epoka: Sep 15, 2026, 02:14 UTC

1 56465C 23064T   26258.09354167  .00066716  00000+0  55893-2 0  2584
2 56465  70.0017 346.7456 0003598 265.7220 198.0307 14.98308090    18

Śledź STARLINK-6054 w czasie rzeczywistym z AllMySat

Download on the App Store